WD6AWP Weather Reports


time (UTC)temp
F
wind
direction
speed
knots
gust
knots
rain 1hr
in
rain 24hr
in
rain mn
in
humidity
%
barometer
mb
20260831124509 68 281 0.0 0.0 0.00 0.00 0.00 92 1011.9
20260831123009 69 281 0.0 0.0 0.00 0.00 0.00 92 1011.9
20260831121507 69 281 0.0 0.0 0.00 0.00 0.00 92 1011.8
20260831120010 69 281 0.0 0.0 0.00 0.00 0.00 92 1011.8
20260831114504 69 281 0.0 0.0 0.00 0.00 0.00 91 1011.9
20260831113003 70 281 0.0 0.0 0.00 0.00 0.00 91 1011.9
20260831111503 70 281 0.0 0.0 0.00 0.00 0.00 91 1012.0
20260831110003 70 281 0.0 0.0 0.00 0.00 0.00 91 1012.0
20260831104509 71 281 0.0 0.0 0.00 0.00 0.00 91 1012.0
20260831103006 71 281 0.0 3.5 0.00 0.00 0.00 92 1012.0
20260831101502 71 281 0.9 4.3 0.00 0.00 0.00 92 1012.1
20260831100119 70 281 0.0 2.6 0.00 0.00 0.00 93 1012.0
20260831094600 69 281 0.0 0.0 0.00 0.00 0.00 91 1012.0
20260831093112 70 281 0.0 0.0 0.00 0.00 0.00 91 1012.1
20260831091558 70 281 0.0 0.0 0.00 0.00 0.00 91 1011.9
20260831090116 70 281 0.0 0.0 0.00 0.00 0.00 91 1011.9
20260831084556 70 281 0.0 0.0 0.00 0.00 0.00 91 1011.9
20260831083107 70 281 0.0 0.0 0.00 0.00 0.00 90 1012.0
20260831081600 70 281 0.0 0.0 0.00 0.00 0.00 90 1012.0
20260831080124 71 281 0.0 0.0 0.00 0.00 0.00 90 1012.1
20260831074551 71 281 0.0 0.0 0.00 0.00 0.00 89 1012.2
20260831073050 71 281 0.0 0.0 0.00 0.00 0.00 89 1012.1
20260831071548 71 281 0.0 0.0 0.00 0.00 0.00 90 1012.0
20260831070046 72 281 0.0 0.0 0.00 0.00 0.00 89 1011.9
20260831064545 72 281 0.0 0.0 0.00 0.00 0.00 89 1011.9
20260831063100 72 281 0.0 0.0 0.00 0.00 0.00 89 1011.7
20260831061544 72 281 0.0 3.5 0.00 0.00 0.00 89 1011.7
20260831060045 72 284 0.0 0.0 0.00 0.00 0.00 88 1011.6
20260831054544 73 284 1.7 4.3 0.00 0.00 0.00 88 1011.7
20260831053121 73 283 0.9 6.1 0.00 0.00 0.00 87 1011.8
20260831051542 73 290 0.9 4.3 0.00 0.00 0.00 85 1011.7
20260831050041 73 285 0.0 4.3 0.00 0.00 0.00 85 1011.8
20260831044635 73 280 0.0 0.0 0.00 0.00 0.00 83 1011.7
20260831043041 73 280 0.0 0.0 0.00 0.00 0.00 83 1011.7
20260831041540 74 280 0.0 0.0 0.00 0.00 0.00 83 1011.5
20260831040039 74 280 0.0 3.5 0.00 0.00 0.00 83 1011.2
20260831034539 74 280 1.7 6.1 0.00 0.00 0.00 83 1011.0
20260831033053 74 268 0.9 6.1 0.00 0.00 0.00 82 1010.8
20260831031542 74 277 4.3 9.6 0.00 0.00 0.00 84 1010.6
20260831030038 74 271 5.2 10.4 0.00 0.00 0.00 84 1010.3
20260831024537 74 277 7.8 12.2 0.00 0.00 0.00 85 1010.3
20260831023036 74 257 6.1 14.8 0.00 0.00 0.00 86 1010.2
20260831021535 75 292 7.8 13.9 0.00 0.00 0.00 86 1010.2
20260831020033 75 282 8.7 13.0 0.00 0.00 0.00 85 1010.3
20260831014531 76 270 7.8 13.9 0.00 0.00 0.00 85 1010.3
20260831013029 77 243 7.0 13.9 0.00 0.00 0.00 84 1010.3
20260831011528 78 265 7.0 13.0 0.00 0.00 0.00 81 1010.3
20260831010039 80 217 3.5 8.7 0.00 0.00 0.00 78 1010.3
20260831004525 80 232 5.2 11.3 0.00 0.00 0.00 77 1010.3
20260831003026 81 240 5.2 12.2 0.00 0.00 0.00 78 1010.4
20260831001525 81 222 5.2 9.6 0.00 0.00 0.00 78 1010.4
20260831000024 81 232 4.3 10.4 0.00 0.00 0.00 78 1010.3
20260830234525 81 215 5.2 12.2 0.00 0.00 0.00 77 1010.3
20260830233028 82 275 5.2 12.2 0.00 0.00 0.00 77 1010.3
20260830231521 82 223 5.2 10.4 0.00 0.00 0.00 78 1010.4
20260830230018 83 223 4.3 10.4 0.00 0.00 0.00 77 1010.5
20260830224519 83 205 6.1 9.6 0.00 0.00 0.00 77 1010.6
20260830223018 84 198 3.5 8.7 0.00 0.00 0.00 76 1010.6
20260830221516 84 187 2.6 7.8 0.00 0.00 0.00 75 1010.9
20260830220016 84 215 3.5 8.7 0.00 0.00 0.00 75 1011.1
20260830214518 84 218 2.6 8.7 0.00 0.00 0.00 75 1011.3
20260830213013 83 236 4.3 7.8 0.00 0.00 0.00 76 1011.5
20260830211513 83 229 6.1 9.6 0.00 0.00 0.00 76 1011.7
20260830210011 83 223 3.5 8.7 0.00 0.00 0.00 76 1011.8
20260830204519 84 196 4.3 9.6 0.00 0.00 0.00 76 1012.0
20260830203014 84 239 4.3 9.6 0.00 0.00 0.00 77 1011.9
20260830201511 83 235 4.3 10.4 0.00 0.00 0.00 77 1012.0
20260830200009 83 233 4.3 10.4 0.00 0.00 0.00 77 1011.9
20260830194508 84 229 4.3 9.6 0.00 0.00 0.00 76 1012.0
20260830193017 83 212 3.5 9.6 0.00 0.00 0.00 77 1012.1
20260830191522 83 215 4.3 8.7 0.00 0.00 0.00 77 1012.1
20260830190006 83 229 3.5 7.8 0.00 0.00 0.00 77 1012.2
20260830184506 83 259 4.3 8.7 0.00 0.00 0.00 78 1012.3
20260830183005 83 232 2.6 7.8 0.00 0.00 0.00 77 1012.3
20260830181503 83 244 3.5 7.8 0.00 0.00 0.00 77 1012.3
20260830180007 83 221 2.6 8.7 0.00 0.00 0.00 77 1012.2
20260830174507 83 258 4.3 7.8 0.00 0.00 0.00 76 1012.2
20260830173001 84 208 4.3 7.0 0.00 0.00 0.00 76 1012.1
20260830171601 83 194 3.5 8.7 0.00 0.00 0.00 77 1012.1
20260830170056 83 234 2.6 7.0 0.00 0.00 0.00 76 1012.1
20260830164553 82 227 3.5 6.1 0.00 0.00 0.00 78 1011.9
20260830163051 81 178 0.0 4.3 0.00 0.00 0.00 79 1011.9
20260830161602 80 225 1.7 4.3 0.00 0.00 0.00 80 1011.9
20260830160046 80 156 0.0 4.3 0.00 0.00 0.00 80 1012.0
20260830154545 80 107 0.0 0.0 0.00 0.00 0.00 81 1012.0
20260830153042 79 103 0.0 3.5 0.00 0.00 0.00 82 1012.0
20260830151539 77 313 0.0 2.6 0.00 0.00 0.00 85 1012.0
20260830150104 75 313 0.0 0.0 0.00 0.00 0.00 88 1012.0
20260830144533 73 279 0.0 0.0 0.00 0.00 0.00 93 1011.9
20260830143037 71 279 0.0 0.0 0.00 0.00 0.00 94 1011.9
20260830141529 70 279 0.0 0.0 0.00 0.00 0.00 93 1011.7
20260830140027 69 279 0.0 0.0 0.00 0.00 0.00 93 1011.7
20260830134537 69 279 0.0 0.0 0.00 0.00 0.00 93 1011.5
20260830133027 69 279 0.0 0.0 0.00 0.00 0.00 92 1011.4
20260830131524 69 279 0.0 0.0 0.00 0.00 0.00 92 1011.3
20260830130022 69 279 0.0 0.0 0.00 0.00 0.00 92 1011.3